Simultaneous Nadir Overpasses (SNOs) Predictions

Prediction of SNOs between GOES-15 and LANDSAT-8 Satellite Orbit:

Table of predicted SNOs for the next 14.0 days since TLE Epoch: 2/19/2022
Index Date Time (GOES-15) GOES-15 Lat,Lon LANDSAT-8 Lat,Lon Distance(km) Time Diff (sec)
1 02/20/2022 06:36:21 -0.02,-127.83 0.45,-125.72 240.41 80
2 02/20/2022 18:54:56 0.02,-127.85 0.66,-130.87 343.38 80
3 02/22/2022 18:42:43 0.02,-127.78 0.06,-127.91 14.55 80
4 02/24/2022 18:33:10 0.02,-127.70 -0.55,-124.94 313.46 80
5 02/25/2022 06:51:54 -0.01,-127.64 -0.55,-130.14 283.53 80
6 02/27/2022 06:42:21 -0.01,-127.56 0.07,-127.17 43.71 80
7 03/01/2022 06:30:08 -0.02,-127.47 0.69,-124.21 370.96 80
8 03/01/2022 18:48:43 0.02,-127.49 0.41,-129.37 213.57 80
9 03/03/2022 18:39:09 0.02,-127.40 -0.16,-126.39 113.92 80
10 03/04/2022 06:57:52 -0.02,-127.34 -0.93,-131.59 482.89 80
